FENGYUN 1C DEB, 29947

Orbit data source: Space-Track

FENGYUN 1C DEB, 29947 is space debris in SSO originally from a launch on Mon, 10 May 1999 UTC launched from the Taiyaun Space Center, China (TSC). Fengyun 1C debris stems from the Chinese weather satellite Fengyun-1C, which was intentionally destroyed by a Chinese anti-satellite missile in 2007. This event dramatically increased the amount of space debris, with thousands of trackable fragments posing hazards to satellites and human spaceflight. The Fengyun 1C debris cloud has become a focal point in discussions about space sustainability and the need for international regulations to prevent the creation of new debris.

Loading next visibility...
Identifier
29947, 1999-025JV
Orbit
SSO
Country
Flag of CNCN / PRC
Related business
Manufacturer
Unknown
Mission
Spacecraft
Bus & Motor
Unknown
Mass
Unknown
Launch date (UTC)
1999-05-10 (27 years ago)
Launch vehicle
Unknown
Launch site
Taiyaun Space Center, China (TSC)
Object type
Payload
Rocket body
Debris
Shape & HBR
Unknown shape, 0.1 m
Radar Cross Section
Small (<0.1 m²)

Expand to show TLE details & history
Last TLE update: 22 hours ago

TLE from 22 hours ago
0 FENGYUN 1C DEB
1 29947U 99025JV  26134.58239755 -.00000086  00000-0 -27555-4 0  9990
2 29947  98.8168 165.5713 0041041  55.4814  95.5953 14.03172090988938
Epoch: 2026-05-14T13:58Z
TLE epoch observation values (Epoch: 2026-05-14T13:58:39.148Z)
Latitude
28.13271°
Longitude
-91.68563°
Altitude
889.295 km
Speed
7.409 km/s
True Right ascension
23h 21m 12s
True Declination
27° 59' 33"
Sunlit
Object was in daylight at epoch
Visualization orbit readout
Latitude
Unknown
Longitude
Unknown
Altitude
Unknown
Speed
Unknown
Apparent Right ascension
Unknown
Apparent Declination
Unknown
Sunlit
N/A
Visualization observer readout
Local Sidereal Time
20:06:43
Azimuth
Unknown
Elevation
Unknown
Doppler factor
Unknown
Orbital elements
Apogee altitude
909.806 km
Perigee altitude
850.229 km
Semi-major axis
7,258.155 km
Eccentricity
0.0041
Inclination
98.8168°
RAAN
165.5713°
Arg. of periapsis
55.4814°
True anomaly
96.06312°
Mean anomaly
95.5953°
Eccentric anomaly
95.82923°
Mean motion
3.50997 °/min
Orbital period
102.56 mins
BSTAR
-0.000027555
Loading maneuver chart data...
Computing Atmospheric mass density...
Loading historical data...
Loading historical data...
Loading historical data...
Loading historical data...
Loading historical data...
Loading historical data...
Loading historical data...

Documentation

Showing up to 5 results
|